SCP
2 2 2 2 1 1 1 0 0 0 0 0 0 0 0 0 1 0 0 0 0 0 0 0 0 0 0 0 0 0 0 0 0 0 0 0 0 0 0 0 0 0 0
3 3 2 2 2 1 1 1 0 0 0 0 0 1 1 1 1 0 0 0 0 0 1 1 1 1 1 1 1 1 1 0 0 0 0 0 0 0 0 0 0 0 0
4 3 3 2 2 1 1 1 1 0 0 0 1 1 1 1 1 1 1 1 1 1 1 1 1 1 1 1 1 1 1 1 1 0 0 0 0 0 0 0 0 0 0
5 4 3 2 2 2 1 1 1 1 1 1 1 1 1 1 1 1 1 1 1 1 1 1 1 1 1 1 1 1 1 1 1 1 0 0 0 0 0 0 0 0 0
5 4 3 2 2 2 2 2 1 1 1 1 1 1 1 1 1 1 1 1 1 1 1 1 1 1 1 1 1 1 1 1 1 1 0 0 0 0 0 0 0 0 0
5 4 3 3 3 3 2 2 1 1 1 1 1 1 1 1 1 0 0 0 0 0 0 0 0 0 0 0 0 0 0 0 0 0 0 0 0 0 0 0 0 0 0
5 5 4 4 4 3 3 2 2 1 1 1 1 1 1 0 0 0 0 0 0 0 0 0 0 0 0 0 0 0 0 0 0 0 0 0 0 0 0 0 0 0 0
6 6 5 5 4 4 3 2 2 2 2 1 1 1 0 0 0 0 0 0 0 0 0 0 0 0 0 0 0 0 0 0 0 0 0 0 0 0 0 0 0 0 0
5 5 5 5 4 4 3 2 2 2 2 2 1 1 0 0 0 0 0 0 0 0 0 0 0 0 0 0 0 0 0 0 0 0 0 0 0 0 0 0 0 0 0
4 4 3 4 4 3 2 2 2 2 2 2 2 1 0 0 0 0 0 0 0 0 0 0 0 0 0 0 0 0 0 0 0 0 0 0 0 0 0 0 0 0 0
3 2 2 3 3 3 2 2 1 1 1 2 3 2 0 0 0 0 0 0 0 0 0 0 0 0 0 0 0 0 0 0 0 0 0 0 0 0 0 0 0 0 0
2 2 2 2 2 2 1 1 1 1 1 1 2 1 0 0 0 0 0 0 0 0 0 0 0 0 0 0 0 0 0 0 0 0 0 0 0 0 0 0 0 0 1
1 1 1 1 1 1 1 1 1 1 1 0 0 0 0 0 0 0 0 0 0 0 0 0 0 0 0 0 0 0 0 0 0 0 0 0 0 0 0 0 0 0 0
1 1 0 0 0 0 0 0 0 0 0 0 0 0 0 0 0 0 0 0 0 0 0 0 0 0 0 0 0 0 0 0 0 0 0 0 0 0 0 0 0 0 0
0 0 0 0 0 0 0 0 0 0 0 0 0 0 0 0 0 0 0 0 0 0 0 0 0 0 0 0 0 0 0 0 0 0 0 0 0 0 0 0 0 0 0
0 0 0 0 0 0 0 0 0 0 0 0 0 0 0 0 0 0 0 0 0 0 0 0 0 0 0 0 0 0 0 0 0 0 0 0 0 0 0 0 0 0 0
0 0 0 0 0 0 0 0 0 0 0 0 0 0 0 0 0 0 0 0 0 0 0 0 0 0 0 0 0 0 0 0 0 0 0 0 0 0 0 0 0 0 0
0 0 0 0 0 0 0 0 0 0 0 0 0 0 0 0 0 0 0 0 0 0 0 0 0 0 0 0 0 0 0 0 0 0 0 0 0 0 0 0 0 0 0
0 0 0 0 0 0 0 0 0 0 0 0 0 0 0 0 0 0 0 0 0 0 0 0 0 0 0 0 0 0 0 0 0 0 0 0 0 0 0 0 0 0 0
0 0 0 0 0 0 0 0 0 0 0 0 0 0 0 0 0 0 0 0 0 0 0 0 0 0 0 0 0 0 0 0 0 0 0 0 0 0 0 0 0 0 0
0 0 0 0 0 0 0 0 0 0 0 0 0 0 0 0 0 0 0 0 0 0 0 0 0 0 0 0 0 0 0 0 0 0 0 0 0 0 0 0 0 0 0
0 0 0 0 0 0 0 0 0 0 0 0 0 0 0 0 0 0 0 0 0 0 0 0 0 0 0 0 0 0 0 0 0 0 0 0 0 0 0 0 0 0 0
0 0 0 0 0 0 0 0 0 0 0 0 0 0 0 0 0 0 0 0 0 0 0 0 0 0 0 0 0 0 0 0 0 0 0 0 0 0 0 0 0 0 0
0 0 0 0 0 0 0 0 0 0 0 0 0 0 0 0 0 0 0 0 0 0 0 0 0 0 0 0 0 0 0 0 0 0 0 0 0 0 0 0 0 0 0
0 0 0 0 0 0 0 0 0 0 0 0 0 0 0 0 0 0 0 0 0 0 0 0 0 0 0 0 0 0 0 0 0 0 0 0 0 0 0 0 0 0 0
0 0 0 0 0 0 0 0 0 0 0 0 0 0 0 0 0 0 0 0 0 0 0 0 0 0 0 0 0 0 0 0 0 0 0 0 0 0 0 0 0 0 0
Wind_Speed
9 7 7 6 6 6 6 7 7 6 7 8 8 7 6 6 5 5 4 4 4 3 3 3 3 2 2 1 1 1 2 3 3 4 3 2 2 4 4 4 4 5 5
10 8 8 7 6 6 7 7 7 7 8 8 8 8 7 7 6 6 6 5 5 5 4 4 4 3 3 2 2 2 2 3 3 4 3 3 4 4 4 5 5 5 4
10 9 8 8 8 8 7 7 7 7 7 8 8 8 8 7 7 7 7 6 6 6 6 6 6 5 5 4 4 3 3 3 3 3 4 3 3 3 3 4 4 3 5
10 9 9 9 9 8 7 7 8 8 8 8 8 8 8 7 8 8 7 7 6 6 6 6 6 6 7 6 5 5 4 4 3 3 4 4 4 4 2 3 3 3 4
10 10 10 8 7 7 7 7 7 8 9 8 7 7 6 6 7 7 7 7 7 6 6 6 7 8 10 8 6 6 5 4 4 4 4 3 4 3 4 3 3 4 4
11 11 10 9 9 8 8 7 7 7 7 7 7 7 7 7 8 10 8 6 6 6 6 6 6 7 9 11 12 11 9 7 6 5 5 6 7 6 4 4 3 3 4
11 10 10 10 9 8 8 7 8 8 7 7 7 7 7 7 10 11 11 6 6 6 6 5 5 5 6 5 8 10 11 13 13 8 8 9 8 7 5 5 5 6 6
9 8 8 8 8 7 6 7 7 6 6 6 6 7 6 7 11 11 10 6 5 5 5 5 5 6 5 5 5 6 7 8 9 8 9 10 9 8 7 7 7 6 6
7 7 7 7 6 6 6 6 6 5 5 6 5 6 6 6 9 10 9 4 4 5 5 5 6 6 8 8 5 6 7 8 10 12 12 13 14 14 9 4 4 4 6
4 4 5 5 6 6 7 6 4 4 5 5 5 5 6 6 7 9 9 4 4 4 4 4 6 7 7 6 5 5 8 9 7 7 8 11 11 12 13 10 8 7 6
4 4 4 4 4 5 4 3 4 4 3 3 3 3 3 4 4 6 7 4 4 4 4 4 4 6 7 7 6 6 10 9 6 7 7 7 7 7 8 8 9 9 9
5 4 4 3 2 2 3 2 3 4 3 3 2 1 1 1 2 4 6 7 5 4 4 3 4 6 8 9 8 10 13 10 5 5 6 7 7 8 8 8 9 10 11
5 4 4 4 2 2 3 3 3 2 3 2 2 2 1 0 1 2 4 6 6 4 4 6 7 9 9 8 10 12 9 5 5 5 7 8 8 8 7 6 7 8 9
5 4 3 3 3 3 3 2 3 2 2 2 2 2 1 1 1 1 1 2 3 4 4 5 7 8 7 8 8 7 5 5 5 7 7 8 6 6 6 6 7 6 6
4 3 2 2 2 2 2 2 2 2 3 4 3 3 3 3 3 4 3 2 2 2 2 2 2 3 3 4 4 5 5 4 5 6 6 7 7 6 7 5 5 5 5
4 3 2 1 1 1 1 1 1 1 2 4 4 4 3 4 4 4 5 4 3 3 2 2 3 4 4 5 5 5 5 5 5 6 6 6 6 7 7 5 5 5 7
3 2 1 1 1 0 0 0 1 2 2 2 3 4 5 5 4 4 4 4 4 3 2 3 4 5 5 5 5 5 6 6 5 5 6 6 6 6 6 6 6 6 7
3 3 2 1 1 0 0 1 1 1 1 2 3 5 6 6 6 5 4 1 2 2 3 4 5 5 5 5 5 5 6 6 5 6 6 6 6 6 7 7 6 7 7
3 2 2 1 1 1 1 0 1 1 1 2 2 2 4 5 5 4 3 2 3 4 4 5 5 5 5 5 5 5 6 6 6 6 6 7 6 6 7 7 6 9 8
2 4 3 2 2 2 1 1 1 1 1 2 2 2 1 0 1 2 2 3 4 4 5 5 5 5 5 5 5 5 5 6 6 6 6 6 6 6 7 7 7 7 7
2 3 5 3 2 2 2 2 2 1 2 2 3 3 2 2 2 3 3 3 4 4 5 5 5 5 5 4 5 5 6 6 6 6 6 6 6 6 6 6 7 7 7
2 2 2 2 2 2 2 2 2 2 2 2 2 2 2 1 2 3 3 4 4 4 4 4 4 4 5 5 5 6 6 7 6 6 6 6 6 6 7 7 7 7 7
2 3 3 3 2 3 3 2 2 2 2 2 2 1 1 2 2 3 3 4 3 3 4 4 5 5 5 5 5 6 6 6 6 7 7 7 7 7 7 8 9 9 8
3 3 3 3 3 2 2 2 3 3 2 2 2 2 2 2 3 4 4 4 4 4 4 4 5 7 9 7 5 5 5 6 7 6 9 9 9 8 8 8 9 10 9
3 3 3 2 2 2 2 3 3 3 3 3 3 3 3 3 4 4 4 4 5 5 6 6 5 7 9 10 9 7 7 8 8 7 7 7 9 10 9 10 9 9 9
3 3 2 2 2 2 2 2 3 3 3 3 3 3 4 4 4 4 4 4 5 5 6 6 7 9 10 9 9 9 8 9 9 9 7 7 9 9 9 8 11 9 9
Wind_Direction
176 177 173 175 173 167 171 178 179 177 172 171 172 171 173 176 173 170 180 180 184 196 196 190 210 201 193 204 178 163 169 160 212 271 268 275 282 282 286 271 261 257 262
179 177 179 179 177 178 180 182 178 176 177 176 174 175 181 183 182 181 189 188 189 199 208 202 219 213 210 215 207 216 215 195 194 252 279 282 273 270 269 274 270 261 254
179 179 180 182 184 187 186 183 178 175 177 178 177 182 187 187 189 192 193 196 200 206 207 206 214 205 217 220 217 222 228 221 197 217 257 264 273 277 289 287 280 279 275
182 182 185 189 192 192 187 183 182 179 179 185 188 191 192 192 194 197 197 202 207 213 213 213 215 208 213 216 220 223 224 228 225 228 249 262 266 276 270 275 291 283 280
181 187 193 191 192 192 189 187 186 187 191 192 193 197 196 195 200 200 202 205 209 218 223 222 223 220 218 215 217 216 215 222 228 233 248 258 262 265 256 248 257 275 278
184 192 191 186 192 195 194 190 189 192 193 190 193 195 199 207 207 206 206 211 210 217 227 234 238 236 234 232 233 226 212 214 221 225 236 239 251 244 243 239 243 261 280
190 193 190 189 192 196 196 189 191 194 193 194 196 195 202 210 207 207 211 207 215 221 224 230 244 244 238 239 246 246 238 234 225 222 233 241 245 238 231 242 235 232 241
188 192 192 190 193 193 193 197 202 196 194 197 200 199 200 211 207 208 210 208 216 224 223 222 230 247 248 239 245 253 252 250 242 235 236 244 243 240 227 232 239 248 254
179 184 184 181 184 185 196 204 204 198 198 200 196 193 200 216 212 211 204 202 221 236 239 237 233 242 252 249 243 253 265 268 261 247 242 247 250 249 241 238 241 242 261
154 157 155 162 175 187 199 201 201 203 206 201 196 192 198 213 214 212 201 197 221 243 253 251 247 252 264 262 239 243 259 267 272 278 267 263 258 257 247 231 230 237 248
111 110 116 141 174 184 183 181 179 184 184 188 191 195 195 204 205 202 199 196 213 233 245 250 253 262 269 268 252 240 249 259 267 263 266 266 262 256 249 236 227 228 235
87 87 89 90 112 139 139 164 169 163 158 168 165 170 204 208 191 197 205 213 214 222 242 249 255 267 272 272 264 256 261 266 260 260 263 264 262 260 256 246 237 234 235
81 75 75 78 79 100 122 123 107 115 131 142 142 164 206 216 192 193 209 222 226 226 242 249 259 267 276 273 266 270 273 260 252 257 260 262 259 259 259 258 255 248 247
78 67 65 81 83 81 96 112 124 139 145 159 165 180 203 243 244 223 238 246 247 250 264 274 280 281 277 272 277 277 261 250 250 256 263 267 267 264 259 255 260 258 258
74 69 64 63 81 84 95 135 159 193 183 177 190 188 190 229 241 216 206 223 223 238 263 289 293 298 297 293 289 282 277 275 267 262 266 271 271 267 264 257 252 252 251
63 51 54 56 62 80 88 30 343 262 225 207 200 190 206 219 226 228 236 247 252 231 194 254 270 274 275 279 282 283 278 272 269 267 266 264 265 264 265 262 251 249 255
70 50 39 40 52 71 98 134 337 341 332 266 236 229 230 237 243 248 257 266 261 206 212 249 257 261 264 267 269 272 276 276 275 273 271 269 267 266 264 263 259 255 258
46 36 33 9 344 278 236 217 196 211 276 298 273 242 235 239 245 250 247 244 280 233 231 246 255 257 260 265 269 272 275 280 276 273 271 269 267 266 266 264 260 256 262
27 3 356 343 332 316 311 287 241 233 232 253 275 280 253 248 256 258 210 205 243 255 249 247 250 256 261 264 267 268 270 273 273 274 274 272 270 266 266 265 264 264 262
5 354 360 345 335 330 325 314 298 284 260 247 250 257 263 173 274 275 234 232 244 255 257 255 257 260 264 268 271 272 274 273 274 274 274 275 271 265 265 268 268 268 263
343 341 352 355 335 314 302 288 275 266 257 256 258 254 217 204 235 253 260 255 252 257 258 258 261 268 269 272 273 271 272 272 272 274 275 277 275 270 266 264 265 265 266
339 332 333 324 316 316 305 293 291 283 275 269 275 286 256 243 257 260 262 267 265 262 261 262 267 267 268 271 274 275 274 276 276 277 277 277 278 276 273 270 269 266 265
344 338 335 329 326 332 336 333 325 315 306 299 292 295 297 276 272 271 274 276 275 274 274 271 273 275 273 271 272 270 273 277 278 278 281 281 279 278 276 273 272 271 268
350 347 347 344 349 352 347 340 335 330 326 323 313 301 292 288 288 287 285 283 282 282 280 277 275 279 283 282 277 273 273 280 288 285 283 281 279 277 275 274 272 270 268
352 349 350 349 350 350 349 344 341 337 331 325 319 315 310 302 295 293 291 289 290 288 290 291 288 288 289 289 288 287 287 287 282 282 281 276 274 274 273 274 273 272 270
349 352 356 358 357 353 352 345 341 337 328 321 318 316 314 314 311 309 306 304 302 298 298 299 298 298 299 296 294 299 296 290 286 280 275 272 272 272 273 273 277 275 274